Theta_e
312 311 311 311 310 310 309 309 308 307 306 305 304 304 304 302 301 301 302 303 303 301 299 297 295 295 294 293 293 293 292 292 292 292 292 292 292 292 292 293 293 293 292 291 290 289 289 288 288 287 287 287 287 286 286 285 285 285 285 286 286 286 286 285 285 286 287 287 287 286 285 284 285 285 284 284 284 285 286 286 286 286 286 286 286
312 311 311 311 310 310 309 309 308 307 306 305 305 304 304 303 301 300 300 301 301 300 299 298 296 295 294 293 293 293 292 292 292 292 292 292 292 292 292 292 293 293 292 291 290 289 289 288 287 287 287 287 287 286 286 285 285 285 285 286 286 286 285 285 284 285 287 287 287 287 286 285 284 285 285 285 285 285 286 286 285 286 286 285 284
312 312 311 311 311 310 309 309 308 307 306 306 305 305 304 303 301 300 299 300 299 298 297 297 296 295 294 293 293 292 292 292 291 291 291 292 292 292 292 292 292 292 291 290 290 289 288 288 287 287 287 287 286 286 285 285 285 285 285 285 285 285 285 284 284 284 285 286 286 286 286 285 285 285 285 285 285 284 285 285 285 285 285 283 282
310 311 311 310 310 310 309 309 308 307 307 306 306 305 304 302 301 300 298 298 298 297 296 295 295 295 294 293 293 292 292 291 291 291 291 291 291 291 291 292 292 292 291 290 289 289 288 288 287 287 287 286 286 285 285 285 285 285 285 285 285 285 284 284 284 284 284 285 286 286 285 285 284 284 284 284 285 284 284 285 285 285 284 282 281
310 310 310 310 309 309 309 309 308 308 308 307 306 306 304 303 302 300 298 297 297 297 295 294 294 294 294 293 292 292 291 291 291 291 291 291 291 291 291 291 291 291 290 290 289 288 288 287 287 286 286 286 286 285 285 284 285 285 285 285 284 284 284 284 284 284 284 284 285 285 285 284 284 283 282 283 283 283 284 285 284 283 283 282 281
309 309 309 309 309 309 308 308 308 308 308 307 307 306 304 303 302 301 300 297 296 295 295 295 294 293 293 293 292 292 291 291 291 291 291 291 290 290 290 291 291 290 290 289 289 288 288 287 287 286 286 286 285 285 284 284 284 284 284 284 284 284 284 284 284 284 284 284 284 284 284 283 283 283 282 282 281 280 282 283 282 281 281 282 281
309 309 309 309 308 308 308 308 308 308 308 307 306 305 304 303 302 301 300 298 296 295 295 295 294 294 293 292 292 291 291 290 290 290 290 290 290 290 290 290 290 290 290 289 288 288 287 287 286 286 286 285 285 284 284 284 284 284 284 283 283 284 284 284 283 283 282 282 282 282 283 282 281 281 281 280 279 279 278 280 281 281 280 279 280
310 309 309 308 308 308 308 308 308 307 306 306 305 304 303 303 302 301 300 299 297 296 295 294 294 294 293 292 291 291 290 290 290 290 290 290 290 290 290 290 290 290 289 289 288 288 287 287 286 286 286 285 284 284 284 284 283 283 284 283 283 283 283 282 281 281 280 279 279 279 280 280 279 279 279 278 278 279 278 277 279 280 280 279 278
310 309 309 308 309 308 308 307 306 305 305 304 303 303 302 301 301 300 299 299 298 296 294 294 293 293 293 292 291 291 290 290 290 290 290 289 289 289 289 289 289 289 289 288 288 287 287 286 286 286 285 285 284 284 284 284 284 284 284 283 283 282 281 280 279 279 278 277 278 277 277 277 277 277 278 277 277 278 278 278 278 278 278 278 278
310 309 309 308 308 308 307 306 305 304 304 304 303 302 301 300 300 299 299 298 297 296 294 293 293 293 293 292 291 290 290 290 289 289 289 289 289 289 289 289 289 289 288 288 287 287 287 286 286 286 286 285 285 285 284 284 283 283 283 282 282 280 279 278 277 277 277 277 277 277 277 277 277 277 277 277 278 278 278 278 278 278 278 277 278
309 310 310 309 308 307 306 305 305 304 303 303 302 302 301 299 299 298 298 297 297 295 294 293 293 292 292 292 291 290 290 289 289 289 288 288 288 288 288 288 288 288 288 287 287 287 286 286 286 286 286 285 285 285 284 283 282 282 282 281 280 279 278 278 277 277 277 277 277 277 277 277 277 278 278 278 278 278 278 277 277 277 277 277 277
308 308 309 308 306 305 305 304 304 304 303 302 301 301 300 299 298 298 297 297 296 295 294 293 292 292 292 291 291 290 290 289 289 288 288 287 287 287 288 288 288 288 287 287 287 287 286 286 286 286 286 285 285 284 283 282 282 282 282 281 280 279 278 277 277 277 277 277 277 277 277 278 277 277 277 277 277 277 277 277 277 277 277 278 277
308 308 308 307 305 304 303 303 303 303 302 302 301 300 299 298 297 297 297 296 296 295 294 293 292 291 291 291 291 290 289 289 288 288 287 287 287 287 287 288 288 287 287 287 287 287 287 287 286 286 286 285 284 284 283 282 282 281 281 281 280 279 278 278 277 277 277 277 277 277 277 277 277 277 277 276 277 277 277 277 277 277 278 278 278
307 307 306 305 304 303 302 302 302 302 301 300 300 299 298 298 297 297 296 296 295 294 293 292 292 291 291 291 290 290 289 289 288 287 287 287 287 287 287 287 287 287 287 287 287 287 287 287 286 286 285 284 284 283 282 281 281 281 281 281 281 280 279 278 277 276 276 276 276 276 277 276 276 276 276 276 277 277 277 277 277 278 278 278 278
306 306 305 303 303 302 302 302 301 301 300 299 298 298 297 297 296 296 296 295 295 294 293 292 292 291 291 291 290 290 289 288 287 287 287 286 286 287 287 287 287 287 287 287 288 288 287 286 286 285 284 284 283 282 281 281 281 281 281 280 279 279 278 277 276 276 276 276 276 276 276 276 276 276 276 277 277 277 277 277 277 278 278 278 278
305 305 304 303 303 302 302 301 301 300 299 298 298 297 297 296 296 296 295 294 294 293 292 292 292 291 291 291 290 289 288 288 287 286 286 286 286 286 286 286 287 287 287 288 288 287 286 285 285 284 283 283 282 281 281 281 280 280 279 279 278 277 278 278 277 276 276 276 276 276 276 276 276 276 276 276 276 277 276 276 277 277 276 276 276
305 304 303 303 303 302 301 301 300 299 299 298 298 297 297 296 295 295 294 294 293 293 292 292 291 291 291 291 290 289 288 287 287 286 286 286 286 286 286 286 287 287 288 288 287 286 285 284 284 283 282 282 282 281 281 280 279 278 278 277 277 277 278 278 276 276 276 276 276 276 276 276 276 276 276 276 276 276 275 275 276 276 274 273 274
304 303 303 302 301 301 300 300 299 299 299 299 298 297 296 296 295 295 294 294 293 293 292 291 291 291 290 290 290 289 288 287 286 286 286 286 286 286 286 286 287 287 287 287 286 284 284 283 283 282 282 282 281 281 280 279 278 277 277 276 276 276 277 277 276 276 276 276 276 276 276 276 276 276 276 276 276 276 274 274 275 274 272 272 273
303 302 301 300 299 299 298 298 298 298 298 298 297 296 296 295 295 294 294 293 293 292 291 291 290 290 290 290 289 288 287 286 286 286 286 285 285 285 286 286 286 286 286 286 284 284 283 283 282 282 281 281 281 280 279 279 277 276 275 275 275 276 277 276 275 275 275 274 275 276 276 276 276 276 276 276 276 276 274 272 272 272 271 272 273
303 302 301 300 299 298 297 297 296 296 296 295 295 294 294 294 294 294 293 292 292 291 290 290 290 289 289 289 288 287 286 286 285 285 285 285 285 286 287 287 286 286 285 284 283 283 283 283 282 281 281 280 280 279 279 279 277 275 275 275 276 276 276 275 274 274 274 274 275 275 276 276 276 275 276 276 276 275 273 271 271 271 271 272 272
302 302 302 301 300 298 297 296 295 295 295 294 294 294 294 293 293 293 293 292 291 290 289 289 289 289 288 288 287 286 285 285 285 285 284 284 285 286 287 287 286 285 284 283 283 283 283 282 282 281 280 280 279 279 279 279 277 276 276 276 276 275 274 273 274 274 274 275 275 275 276 276 276 276 276 276 275 273 272 271 271 271 271 271 271
300 300 301 301 301 300 298 296 295 294 294 294 294 293 293 292 292 292 291 291 290 290 289 289 288 288 287 287 286 285 285 284 284 284 284 284 285 286 287 286 286 284 283 282 283 283 282 282 281 280 280 279 279 279 279 278 276 276 277 276 275 275 274 274 274 274 275 275 275 275 276 276 276 276 276 276 274 272 271 270 271 271 271 271 271
299 300 300 300 301 300 299 298 296 295 294 294 293 292 292 291 291 290 290 290 289 289 289 288 288 287 287 286 285 284 284 284 283 283 284 284 285 285 286 285 284 283 282 282 283 283 282 281 280 280 279 279 279 279 278 277 276 277 277 276 275 274 274 274 274 274 275 275 275 275 276 276 276 276 276 275 274 272 271 270 270 270 270 271 271
298 298 299 299 300 300 300 299 298 296 294 293 292 291 291 291 290 290 289 289 288 288 288 288 287 287 286 285 284 284 283 283 283 283 284 284 283 284 284 284 282 282 281 282 282 282 281 280 280 279 279 279 279 278 277 277 277 276 276 275 275 275 274 274 274 274 275 275 275 275 276 276 275 275 274 274 273 273 272 271 271 270 270 271 271
298 298 298 298 299 300 300 300 300 297 293 292 292 292 292 291 290 290 289 289 288 288 287 287 287 286 285 284 283 283 282 282 282 282 282 282 282 281 282 282 281 281 281 282 282 281 280 279 279 279 279 279 278 277 277 277 276 276 275 275 275 275 274 274 274 275 275 275 275 275 275 275 275 274 274 273 273 273 273 272 271 271 271 271 271
298 299 299 299 299 299 300 300 300 297 294 292 291 292 292 292 292 291 290 289 288 288 287 287 286 285 284 284 283 283 282 282 282 283 282 281 280 280 280 280 279 280 281 282 281 280 279 279 279 279 278 278 277 277 277 276 276 276 275 275 274 274 274 274 275 275 275 275 274 274 275 275 274 274 274 272 272 272 272 271 271 271 271 271 271
295 297 299 299 299 300 300 299 298 297 295 293 291 291 291 292 292 292 291 290 288 288 288 287 286 285 284 284 283 283 283 283 283 284 283 282 281 279 279 279 279 280 281 281 280 279 279 279 279 278 278 277 277 277 276 276 275 275 275 274 274 274 274 274 274 274 274 274 274 274 274 274 274 274 273 272 272 272 271 271 271 271 271 271 271
293 295 297 298 298 299 299 299 297 296 295 293 292 291 290 290 290 291 293 292 291 291 290 288 287 286 285 284 283 282 283 283 284 284 285 285 283 280 279 279 280 280 281 280 279 279 278 278 278 278 277 277 276 276 275 275 275 275 275 275 275 274 274 274 274 274 273 273 273 274 274 274 274 273 272 271 271 271 271 270 271 271 271 271 270
293 294 295 296 297 297 298 297 297 295 294 293 292 291 290 289 289 289 289 290 291 292 292 291 290 287 285 284 284 283 283 283 284 285 286 285 283 281 281 281 281 280 279 279 279 278 278 278 278 278 277 276 275 275 274 274 275 275 275 275 275 275 275 275 274 274 273 273 273 273 274 274 273 272 270 270 270 270 270 270 271 271 271 270 270
292 293 294 294 295 296 296 296 296 294 293 292 291 290 289 289 288 287 287 287 287 288 288 289 289 287 285 284 284 284 284 285 285 285 284 282 281 280 280 280 280 279 278 278 278 278 278 278 278 277 276 275 275 274 274 275 275 275 275 275 275 275 275 274 274 273 273 273 273 273 273 273 272 270 269 269 270 270 270 270 271 271 270 270 270
290 291 292 293 294 294 295 295 295 294 293 291 290 289 288 288 288 287 286 286 285 284 284 284 285 285 284 283 283 283 284 285 286 285 282 280 279 279 279 278 278 278 278 278 278 278 278 277 277 276 275 274 274 274 275 275 275 275 275 275 275 275 274 274 273 272 272 272 273 273 272 271 270 269 269 269 270 270 270 270 271 270 270 270 270
288 289 290 292 293 293 293 293 293 293 292 291 290 289 288 288 287 286 285 284 283 283 282 281 281 281 281 282 282 282 283 284 284 283 281 279 278 278 278 278 278 278 278 278 278 278 277 276 275 275 274 274 274 274 274 274 274 274 274 275 275 274 274 273 272 272 272 272 273 272 271 269 269 269 269 269 270 270 270 270 270 270 270 270 270
287 288 289 290 291 292 292 292 292 292 292 291 290 289 288 288 287 285 284 281 280 279 279 279 279 279 279 280 281 282 284 284 282 280 279 278 278 279 279 278 278 278 278 278 277 277 276 275 275 274 274 274 274 274 274 274 274 274 274 274 274 274 273 272 272 272 272 272 272 272 270 269 269 269 269 269 270 270 270 270 270 270 270 270 270
285 286 286 288 289 290 291 291 292 292 292 291 290 289 288 287 286 284 282 280 278 277 277 277 277 278 278 279 281 282 283 282 280 279 278 278 278 278 278 277 277 277 277 277 277 276 275 275 274 274 274 274 274 274 274 274 274 274 274 274 274 273 273 272 271 271 272 272 272 271 270 269 269 269 269 269 270 270 270 270 270 270 270 269 269
285 285 285 285 287 288 290 290 291 291 291 290 290 288 287 285 284 282 281 280 279 277 276 276 276 277 278 279 280 280 280 279 279 278 278 278 278 277 277 276 277 277 276 276 276 275 275 274 274 274 274 274 274 274 274 274 274 274 274 274 273 273 272 272 271 271 272 272 272 271 270 269 269 269 269 269 270 270 270 270 270 270 269 269 269
283 283 284 284 285 287 288 289 289 289 289 289 288 287 285 283 282 280 279 279 278 277 276 276 276 276 277 278 278 278 278 278 278 277 278 278 277 277 277 278 277 276 276 276 275 275 274 273 274 274 274 274 274 274 274 274 273 273 273 273 273 273 272 271 271 271 271 271 271 271 270 269 269 269 269 269 270 270 270 270 269 269 269 269 269
280 281 282 284 285 286 287 288 288 288 288 287 285 284 282 281 280 278 277 277 277 276 276 276 276 275 276 276 276 277 277 277 277 277 277 276 276 277 277 277 276 276 276 275 275 274 274 273 274 274 274 274 274 274 273 273 273 273 273 273 273 272 271 271 271 271 271 271 271 270 269 269 269 269 269 269 270 270 270 269 269 269 269 269 269
279 281 282 283 284 284 285 286 287 286 285 284 283 282 281 279 278 277 276 276 276 276 276 276 276 275 275 275 275 276 276 276 275 275 275 275 276 276 276 275 275 275 275 274 274 274 273 273 274 274 274 274 273 273 273 273 273 273 273 273 272 272 271 271 271 271 271 271 271 270 269 269 269 269 269 269 270 270 269 269 269 269 269 269 269
278 280 281 282 283 283 284 285 285 285 284 283 281 280 279 278 277 276 276 276 276 276 276 275 275 275 275 275 275 275 275 275 275 275 276 276 276 276 275 274 274 274 274 274 273 273 273 273 274 274 273 273 273 273 273 273 273 273 273 272 272 272 271 271 271 271 270 270 270 269 269 268 269 269 269 269 270 269 269 269 269 269 269 269 269
278 279 280 281 282 282 283 284 284 284 283 282 281 279 278 277 277 276 276 276 276 276 276 275 275 275 275 276 276 276 276 275 276 277 277 277 276 275 274 274 274 274 274 273 273 273 273 273 273 273 273 273 273 273 273 273 273 273 272 272 272 272 271 271 270 270 270 270 270 269 268 268 269 269 269 269 269 269 269 269 269 269 269 269 269
278 279 280 281 281 282 282 282 282 282 282 281 280 278 277 277 276 276 276 276 276 275 275 274 274 275 276 276 277 276 277 277 278 278 277 276 275 275 274 274 274 273 273 273 273 273 273 273 273 273 273 273 273 273 273 273 272 272 272 272 272 271 271 270 270 270 270 270 269 268 268 269 269 269 269 269 269 269 269 269 269 269 269 269 269
278 279 280 281 281 281 281 281 281 281 280 279 278 277 277 276 276 275 275 275 275 275 274 274 274 275 276 276 276 276 277 279 278 277 275 275 275 274 274 273 273 273 273 273 273 273 273 273 273 273 273 273 273 273 272 272 272 272 272 272 272 271 271 270 270 270 270 269 269 268 268 269 269 269 269 269 269 269 269 269 269 269 269 269 269
277 278 280 280 281 281 281 281 280 279 278 277 277 276 276 275 275 275 275 275 274 274 274 274 275 276 275 274 275 277 278 278 276 275 275 274 274 273 273 273 273 273 273 273 273 273 273 273 273 273 273 273 273 273 272 272 272 272 272 272 271 271 270 270 270 270 269 269 268 268 268 269 269 269 269 269 269 269 269 269 269 269 269 269 269
278 278 279 280 280 280 280 279 278 277 277 276 275 275 275 275 274 274 274 274 274 274 275 276 276 276 274 274 275 277 277 275 274 274 274 274 273 273 273 273 273 273 273 273 272 272 273 273 272 273 273 273 272 272 272 272 271 271 272 271 271 271 270 270 270 269 269 269 268 268 269 269 269 269 269 269 269 269 269 268 269 269 269 269 269
278 278 278 279 280 279 278 278 277 276 275 275 274 274 274 274 274 274 274 274 274 274 275 276 276 275 274 275 276 276 274 273 273 273 273 273 273 273 273 273 273 273 272 272 272 272 272 272 272 272 272 272 272 272 271 271 271 271 271 271 271 270 270 269 269 269 269 268 268 269 269 269 269 268 269 269 269 268 268 268 268 269 269 269 269
277 277 278 278 279 278 277 276 275 275 275 274 274 273 273 273 273 273 273 273 274 275 275 276 275 275 275 276 275 274 273 273 273 273 273 273 273 272 272 273 272 272 272 272 272 272 272 272 272 272 272 272 272 271 271 271 271 271 271 271 270 270 270 269 269 269 269 268 268 269 269 269 268 268 269 269 269 268 268 268 268 269 269 268 268
276 276 277 277 277 276 276 275 274 274 273 273 273 272 272 272 272 272 273 274 274 275 275 275 275 275 275 275 274 273 273 273 273 273 272 272 272 272 272 272 272 272 272 272 272 272 272 272 272 272 272 272 272 271 272 272 271 271 271 271 270 270 270 269 269 269 268 268 268 269 269 268 268 268 268 269 268 268 268 268 268 269 269 268 268
274 275 275 275 275 275 274 273 273 272 272 272 271 271 271 271 272 272 273 273 274 274 275 275 275 274 274 274 274 273 273 273 273 272 272 272 272 272 272 272 272 272 272 272 272 272 272 272 271 271 271 271 272 272 272 272 272 272 271 271 270 270 270 269 270 270 269 268 269 269 268 268 268 268 268 268 268 268 268 268 268 268 269 269 269
274 274 274 274 274 273 273 272 272 271 271 271 271 271 271 271 272 272 273 273 274 275 275 276 275 275 274 274 273 273 273 272 272 272 271 271 272 272 272 272 272 272 272 272 272 272 271 271 271 271 271 271 272 272 272 272 272 272 271 271 271 270 270 270 270 270 269 268 269 269 268 268 268 268 268 268 268 268 268 268 269 269 268 268 268
272 272 272 272 272 272 272 271 271 271 271 271 271 271 271 271 272 272 273 274 275 275 276 276 275 275 274 273 273 273 273 272 272 271 271 271 271 272 272 272 272 272 271 271 271 271 271 271 270 270 271 271 271 271 272 272 272 271 271 271 271 270 270 270 270 270 269 268 268 268 268 268 268 268 268 268 268 268 268 269 269 269 269 268 268
271 271 271 271 271 271 271 271 271 270 270 270 271 271 271 272 272 273 274 275 275 275 275 274 274 273 273 272 272 273 272 271 271 271 271 271 271 271 271 272 271 271 271 271 271 271 270 270 270 270 270 271 271 271 272 272 271 271 271 271 270 270 270 270 270 270 269 268 268 268 268 268 268 268 268 268 268 268 268 269 269 269 269 268 268
Wind_Speed
50 49 48 48 48 48 48 47 48 49 48 49 48 46 46 47 47 46 43 40 39 39 40 41 42 42 43 43 43 42 41 40 39 38 37 35 33 32 30 29 28 27 26 26 25 23 22 20 20 20 19 19 18 18 18 18 19 21 22 25 26 27 30 32 38 49 53 49 48 51 52 53 53 52 51 51 50 49 48 47 47 49 51 52 52
51 51 50 51 51 50 50 50 50 51 51 51 50 48 48 49 49 50 48 45 43 41 40 41 42 43 44 44 44 43 42 41 40 39 37 36 35 33 31 30 29 28 27 26 24 23 22 20 20 20 19 19 18 18 18 19 20 22 23 25 28 28 29 32 37 45 53 53 49 51 53 53 53 52 50 51 51 49 49 48 48 50 52 53 54
51 53 54 54 53 53 54 54 53 54 54 53 51 50 50 50 51 52 50 48 46 45 44 43 42 43 44 45 44 44 43 42 41 40 38 37 35 34 32 30 29 28 27 26 24 23 22 21 20 20 19 19 19 18 19 19 21 23 25 26 28 29 29 31 35 41 50 55 52 51 53 54 53 52 51 50 50 49 50 50 50 51 53 54 55
51 55 57 56 55 56 57 56 56 57 56 55 53 53 53 53 53 53 52 51 48 47 47 46 45 44 45 45 45 45 44 43 42 41 39 37 36 34 32 31 29 28 27 26 24 23 22 21 20 20 19 19 19 19 19 20 22 23 25 27 27 29 29 31 34 38 45 53 54 52 52 54 54 52 51 51 50 50 51 51 51 53 54 54 55
50 53 57 58 58 58 58 58 59 59 58 57 56 55 56 55 54 53 53 53 51 48 48 48 48 47 46 46 46 46 45 44 43 41 39 38 36 35 33 32 30 29 27 26 24 23 22 21 21 20 20 19 19 20 20 21 23 24 26 27 27 28 30 31 34 37 41 48 53 53 52 53 54 53 51 51 53 52 52 52 53 55 57 56 55
50 52 55 57 59 59 59 59 59 59 59 59 59 58 58 57 56 54 54 53 53 51 49 49 49 48 47 46 46 46 45 44 43 41 39 38 37 36 34 32 31 29 27 25 24 23 22 21 21 20 20 20 19 20 20 21 23 25 25 26 27 28 30 32 34 36 39 43 48 52 52 52 54 56 52 50 53 55 55 58 59 55 54 57 58
49 50 53 56 58 59 59 58 56 56 57 59 60 60 60 59 57 56 54 54 54 53 52 50 49 48 48 47 46 46 45 45 43 41 40 39 38 37 35 33 31 29 27 25 24 23 22 21 21 20 20 20 20 20 21 21 23 25 25 26 27 28 30 32 33 34 37 41 45 49 52 52 54 57 55 51 53 54 51 55 64 61 53 54 57
49 50 52 54 56 57 57 55 54 54 56 58 60 61 61 60 58 56 55 55 54 54 54 52 50 48 47 47 46 46 46 45 44 42 41 40 39 37 35 33 31 29 27 25 24 23 22 22 21 20 20 20 20 20 21 22 23 24 25 26 27 28 29 30 31 33 36 40 45 47 51 54 54 57 57 52 53 56 50 48 58 64 60 59 59
50 50 53 54 54 54 54 54 53 53 55 56 58 59 60 59 58 57 56 55 54 54 53 52 50 48 47 47 47 47 47 46 44 43 42 41 40 38 35 33 31 28 27 25 24 23 23 22 21 20 19 20 21 22 22 23 24 25 26 26 27 27 27 28 29 32 35 39 43 46 49 53 54 56 58 54 52 57 56 49 52 58 59 62 65
48 47 51 53 52 52 53 54 53 53 53 54 55 57 58 59 58 57 56 55 54 54 53 53 51 49 47 48 48 49 48 47 45 43 42 41 39 37 35 33 30 28 27 25 25 23 23 22 21 19 20 21 22 23 22 22 23 24 24 24 24 24 25 26 28 30 35 39 42 43 45 50 51 50 53 54 51 52 53 50 52 57 55 57 66
47 45 48 51 51 51 53 54 53 52 51 51 53 54 56 57 57 56 55 54 53 53 53 53 52 50 49 48 49 49 49 47 45 43 42 40 38 36 34 32 29 28 27 26 24 23 23 22 21 20 21 22 22 22 21 21 21 22 22 22 21 21 22 24 28 30 34 38 41 42 43 47 49 47 48 51 51 50 50 49 52 56 54 54 62
49 48 49 50 50 51 52 53 52 51 50 50 51 52 54 55 56 56 55 54 53 53 53 53 52 51 50 49 49 50 48 47 45 44 43 41 39 36 33 31 29 28 27 25 24 24 23 22 22 22 22 21 22 22 21 20 20 21 22 21 20 20 20 23 27 30 33 37 41 43 43 45 48 48 48 49 50 51 53 54 54 54 55 56 61
48 48 48 48 50 50 51 50 50 50 49 48 49 51 52 54 54 55 54 53 53 53 53 53 52 52 51 50 50 49 48 46 45 44 43 41 38 36 33 31 29 28 27 26 25 24 23 22 23 23 23 21 22 22 21 21 21 21 21 21 21 21 21 22 24 27 31 35 40 44 44 44 48 50 48 46 47 50 53 57 57 56 59 61 64
49 48 47 47 48 48 48 48 48 48 48 47 49 50 51 52 53 53 53 52 53 53 53 53 52 52 51 50 49 49 47 46 45 45 43 40 38 35 33 31 30 29 28 26 25 24 23 24 25 24 23 22 21 21 20 21 22 22 22 22 23 23 23 24 25 27 29 32 37 42 42 42 44 46 46 44 44 47 52 57 59 59 62 64 64
47 46 46 46 46 45 45 46 46 47 46 47 48 49 50 51 51 52 52 52 52 52 52 52 52 51 51 49 49 49 47 46 45 44 42 40 38 35 33 32 31 29 28 27 26 25 24 24 25 24 22 21 20 20 20 21 22 22 22 22 23 24 24 25 26 27 29 31 35 39 41 41 41 43 43 43 44 46 49 54 57 58 60 64 65
42 42 42 43 43 43 44 45 45 45 46 47 48 48 49 49 50 51 51 50 50 50 51 51 51 50 50 49 49 49 47 46 46 44 42 39 38 36 35 33 31 29 28 27 26 24 23 24 24 22 20 20 19 19 20 21 20 20 21 22 23 24 25 25 26 27 28 30 33 36 39 40 39 39 40 40 43 46 49 53 57 58 60 64 66
34 37 39 40 41 42 43 44 44 45 46 46 47 47 48 48 49 49 49 49 49 50 50 50 49 49 48 49 49 49 47 47 46 45 42 39 39 38 35 33 31 30 28 26 25 23 23 24 23 21 20 19 19 19 19 19 19 20 22 23 23 25 26 26 27 29 29 31 33 35 37 37 37 39 40 41 44 46 48 52 54 53 54 57 59
27 31 34 36 38 40 41 42 43 44 45 45 46 46 47 47 48 47 47 47 47 48 48 48 48 48 48 48 48 47 47 47 47 45 42 40 39 38 34 32 31 29 27 25 24 22 22 23 22 20 20 19 18 18 17 17 18 20 21 22 25 27 28 28 29 31 32 33 35 36 37 38 39 42 43 44 44 42 42 45 46 45 46 48 50
25 27 29 32 34 37 39 41 42 44 44 45 45 45 45 45 45 45 45 45 45 46 46 47 47 47 47 47 47 46 47 47 46 44 42 40 39 37 33 31 30 28 26 25 23 22 22 23 21 19 18 18 17 16 16 16 17 18 20 24 27 29 28 28 30 31 32 33 36 38 39 39 41 43 43 43 42 40 38 39 39 39 40 43 44
22 23 25 27 30 33 36 38 41 42 43 43 43 43 43 43 44 43 43 43 44 45 45 46 46 46 46 46 46 46 47 47 47 45 42 40 39 37 33 32 30 28 26 24 22 22 23 22 20 17 17 17 16 15 16 15 15 18 21 25 28 29 28 27 29 30 32 34 37 39 40 41 41 42 42 41 40 38 37 35 33 34 37 41 44
24 22 23 24 25 28 31 35 38 39 40 40 41 42 42 43 43 42 41 42 43 44 45 45 46 46 46 46 47 47 47 47 46 43 41 40 39 37 34 31 29 27 25 24 22 23 23 21 18 16 16 16 15 15 15 13 13 18 22 24 26 27 26 27 31 32 33 36 38 38 39 40 41 41 39 39 38 36 34 31 29 30 33 37 42
28 26 24 24 24 25 26 29 33 37 38 39 40 41 42 42 42 41 40 41 42 43 44 45 45 46 46 46 47 47 47 47 45 42 40 39 39 36 33 30 29 27 25 24 23 24 23 19 16 15 15 15 14 14 13 12 14 17 20 21 24 25 26 29 32 33 34 36 37 38 39 39 40 40 39 39 38 35 33 30 28 30 33 36 39
32 31 28 26 25 26 25 26 28 32 36 38 39 40 41 41 41 41 41 41 42 43 44 45 46 46 46 47 48 47 48 47 44 42 41 38 37 35 32 30 28 27 25 24 24 24 21 17 16 15 15 14 13 12 11 11 14 16 18 20 23 25 27 30 31 32 34 35 36 37 38 38 40 41 39 39 38 37 36 36 35 35 37 39 40
32 32 32 30 27 26 26 26 27 30 35 38 39 40 40 40 40 41 41 42 43 44 45 45 46 47 48 48 49 49 49 47 44 42 40 37 35 34 32 30 28 27 26 25 25 23 19 16 15 15 14 13 11 10 10 11 13 15 18 20 23 25 27 29 30 32 33 35 36 37 38 39 40 41 40 39 39 39 40 41 41 41 41 43 45
30 29 30 30 29 27 26 26 28 31 35 38 40 40 40 39 40 42 42 42 43 44 45 46 47 47 48 49 50 51 49 47 44 41 38 35 34 34 32 29 27 27 27 25 23 20 17 15 15 15 13 12 10 9 9 10 12 15 18 20 23 24 25 27 29 31 33 34 36 38 39 39 40 40 39 39 40 41 42 44 46 46 46 48 51
33 30 29 28 28 29 29 27 28 31 36 40 41 41 40 39 40 41 42 43 44 44 45 46 47 48 49 50 51 51 49 46 43 40 38 36 35 33 31 29 27 27 27 25 21 19 16 16 15 14 11 10 9 9 9 10 12 14 17 19 21 22 23 25 27 29 32 34 36 38 39 40 40 40 39 40 41 42 43 46 49 50 50 51 54
37 36 32 30 29 30 30 30 29 30 35 39 41 42 42 41 41 42 43 44 45 46 47 48 49 51 51 50 50 51 49 47 45 43 41 39 37 35 33 30 29 29 27 24 21 18 17 16 14 12 10 9 8 9 9 10 12 14 16 18 20 20 21 24 26 28 31 33 35 37 38 39 39 39 39 41 43 44 44 46 49 52 53 53 54
39 38 36 34 33 32 32 31 31 32 35 38 41 43 44 45 45 44 44 44 45 46 48 50 52 52 51 50 52 53 52 51 50 48 45 42 40 38 36 34 33 30 27 23 20 18 16 15 13 11 9 7 7 8 10 11 13 14 16 17 18 19 20 22 24 26 29 31 34 36 37 38 38 39 40 42 44 45 45 46 48 51 53 52 53
38 40 39 38 37 35 34 33 33 35 37 39 41 43 43 45 46 46 46 46 44 43 45 47 49 51 52 53 56 58 57 56 52 48 44 41 40 38 36 34 31 28 25 22 20 18 17 15 13 10 7 6 6 8 10 11 12 14 15 16 17 18 20 22 24 26 28 31 33 35 36 37 38 39 41 43 45 46 46 46 48 51 52 52 53
39 40 40 40 40 38 37 36 36 36 38 40 41 42 43 44 45 46 47 47 46 45 45 44 44 47 51 53 55 56 56 53 49 44 41 40 38 36 34 31 28 25 25 23 20 18 17 15 11 8 6 6 7 9 10 11 12 12 13 14 16 18 20 22 24 26 28 30 32 34 35 36 38 40 41 44 46 47 46 46 47 50 51 51 53
40 41 41 41 42 41 40 39 38 38 39 40 41 43 43 44 45 46 46 46 45 44 44 44 44 46 50 52 53 53 51 48 45 43 42 40 37 35 32 29 27 26 25 22 20 18 16 12 9 7 7 8 8 9 10 11 12 13 13 14 16 18 20 22 24 26 28 30 32 33 33 34 37 39 41 43 46 47 47 47 48 49 50 50 51
41 42 42 42 42 42 42 42 41 40 40 40 41 43 44 44 45 45 46 46 44 41 42 45 45 47 50 52 53 52 49 46 44 43 41 38 36 33 31 29 28 27 24 21 18 16 13 10 9 8 8 8 8 9 10 11 12 13 15 17 18 19 20 22 24 26 28 30 32 33 33 34 36 39 41 43 45 47 48 49 50 50 51 51 50
43 44 43 43 44 44 44 43 42 42 41 41 42 43 44 45 45 44 43 43 40 38 39 43 45 47 50 52 51 49 46 44 42 40 38 36 34 32 31 29 28 26 23 20 17 15 12 11 9 9 8 8 8 9 10 11 12 14 16 18 19 20 21 22 24 27 28 30 32 33 33 34 36 39 41 43 43 45 48 50 52 52 51 51 51
45 46 44 43 44 46 46 46 45 43 42 42 42 43 44 44 44 43 42 40 38 37 37 40 43 46 49 50 49 46 43 41 39 37 35 34 33 31 30 28 26 24 22 19 17 15 13 11 10 9 9 8 8 8 9 11 12 14 16 18 20 21 22 23 25 27 29 31 32 33 34 35 37 39 42 43 44 45 48 50 52 52 51 51 52
41 44 44 43 44 46 47 48 47 45 44 44 43 44 44 43 43 43 43 42 41 40 38 37 39 44 48 48 45 42 39 37 36 35 35 34 32 31 30 29 27 24 22 20 18 15 13 12 11 9 8 8 8 8 9 10 12 15 17 19 20 21 22 24 26 28 29 31 32 33 34 36 37 39 41 43 44 46 50 52 52 52 51 52 52
37 39 40 41 43 45 47 48 48 47 46 45 44 43 43 42 42 42 41 41 41 41 39 37 35 37 40 42 40 38 36 35 35 36 35 34 33 33 32 29 25 23 22 20 17 15 13 12 11 9 8 7 7 8 9 11 13 15 17 19 21 22 23 25 27 29 30 31 32 34 35 37 38 40 42 43 44 46 50 53 53 52 52 52 52
36 37 38 40 41 43 45 47 48 48 46 44 43 42 41 41 41 40 40 40 40 40 40 39 37 35 34 36 36 35 35 35 35 35 33 33 33 31 28 24 22 22 21 19 17 15 13 12 10 9 7 7 7 8 10 11 13 15 17 19 21 22 23 25 27 28 30 31 33 34 36 37 39 41 42 44 46 48 51 53 54 54 53 52 52
36 36 37 38 39 41 43 45 46 46 45 43 42 41 41 41 40 40 39 40 42 42 42 43 43 42 42 41 39 37 35 34 34 33 33 34 34 30 26 23 23 21 19 18 16 14 13 11 10 8 7 6 7 8 10 12 14 16 18 19 20 21 23 25 26 28 29 32 34 35 36 38 40 41 42 44 47 51 53 54 53 54 54 54 51
38 37 36 36 38 40 42 44 45 45 45 43 42 41 41 41 41 41 41 42 44 45 45 46 46 47 47 47 45 42 40 39 38 38 38 37 34 30 27 26 24 21 19 17 15 14 12 11 9 7 6 6 7 9 10 12 14 16 18 20 21 22 23 25 27 29 30 32 33 35 37 39 41 42 43 45 48 52 54 54 53 53 54 54 53
39 38 37 37 39 41 42 43 45 46 45 44 43 41 41 42 43 43 44 45 46 47 48 48 48 49 49 49 48 47 47 45 44 42 40 37 33 30 28 26 23 21 19 16 15 13 12 10 8 6 6 6 7 9 11 13 15 16 18 20 22 23 24 25 27 29 30 32 34 35 37 40 42 43 44 46 50 54 54 54 54 53 53 54 54
37 37 37 37 38 41 42 43 45 46 44 43 43 42 42 43 44 45 46 48 48 48 48 48 48 49 49 49 49 49 49 47 43 40 37 34 32 30 28 25 22 20 17 16 15 13 11 9 7 6 5 5 7 9 11 13 15 16 18 20 22 23 24 25 27 29 30 32 34 36 38 40 41 43 45 49 52 54 54 54 55 54 54 53 53
38 38 38 37 39 41 42 42 43 44 42 42 42 42 42 43 44 46 48 49 49 49 48 47 48 48 49 49 49 49 46 42 38 36 35 33 31 29 27 24 22 20 18 16 15 13 11 9 7 5 4 5 7 9 11 13 15 17 19 20 22 23 25 26 28 29 30 31 34 36 39 41 41 43 46 50 52 54 54 55 55 54 54 54 53
37 38 39 39 40 41 41 41 41 42 42 41 41 42 42 43 45 47 48 49 49 50 50 49 49 49 49 48 48 45 40 36 35 36 35 33 31 29 27 24 22 20 18 17 15 13 10 8 6 4 4 5 7 9 11 13 15 17 19 21 22 23 25 27 28 29 30 31 34 36 39 41 42 44 48 50 52 54 55 55 55 55 54 55 53
37 36 37 40 40 39 39 39 39 39 40 39 40 41 42 44 45 47 49 50 51 52 52 51 51 51 50 48 45 42 37 35 35 36 35 33 31 29 27 24 22 20 18 16 14 12 9 7 5 4 4 5 7 9 11 13 15 17 19 21 22 23 25 26 28 29 29 31 35 38 40 41 43 46 48 50 52 54 54 55 56 55 55 55 54
38 35 36 38 39 37 37 37 37 37 37 38 39 40 42 44 46 48 49 51 52 53 53 52 52 51 50 47 44 41 37 36 36 35 34 32 30 28 26 23 21 19 18 15 13 10 8 6 4 3 4 6 8 9 11 13 14 17 19 20 22 23 24 25 27 27 28 31 35 38 40 42 44 46 48 49 52 53 54 55 55 55 55 55 54
32 32 34 36 37 36 36 36 36 36 37 38 40 41 43 44 46 47 49 52 53 54 53 52 51 51 50 47 43 40 38 36 36 34 33 31 29 26 24 23 21 19 17 14 11 9 7 5 4 4 4 6 8 9 11 12 14 16 17 19 21 22 23 25 26 26 27 31 34 37 40 42 44 44 46 49 51 52 53 54 54 54 54 54 53
26 29 32 34 34 34 34 34 35 35 36 38 40 42 43 44 46 48 50 52 53 53 52 51 50 50 48 45 42 40 37 36 35 33 31 29 28 26 24 22 20 18 15 12 9 7 5 4 4 4 5 7 8 9 11 12 13 15 16 18 19 21 23 24 25 25 26 30 33 36 39 41 42 42 45 49 51 52 53 54 54 54 54 53 53
24 28 30 31 31 32 33 33 34 36 37 38 40 41 43 45 47 48 50 51 52 51 50 49 48 47 44 41 39 38 36 34 33 32 30 28 26 25 23 21 18 15 12 10 8 6 5 4 5 6 7 8 9 10 11 12 13 14 16 17 18 20 22 24 24 24 26 30 33 36 38 39 39 40 44 48 50 52 53 54 54 53 53 53 53
23 25 27 28 30 31 32 33 35 37 38 39 41 43 44 45 46 48 49 49 48 47 46 46 45 43 40 38 37 36 34 33 32 30 29 27 26 24 22 19 16 13 10 9 7 6 5 5 6 7 8 9 11 11 12 13 14 15 16 18 19 20 22 24 24 24 26 30 33 37 38 37 37 39 44 48 50 51 52 53 53 53 52 52 53
21 24 26 27 29 30 31 33 35 36 38 40 41 43 43 44 45 45 45 45 44 44 43 42 41 38 36 36 35 35 34 32 31 29 28 26 24 22 19 16 14 11 10 9 7 6 5 6 6 8 9 11 12 12 13 14 15 16 17 18 19 21 23 24 24 24 26 29 34 36 35 35 36 39 44 48 50 51 51 52 52 51 52 52 52
20 22 24 26 27 29 30 32 34 36 37 39 40 41 41 42 41 41 41 41 41 40 39 37 35 34 33 33 33 33 32 31 30 29 27 25 22 20 17 14 12 11 10 9 7 6 6 6 7 9 10 11 12 13 14 14 15 17 18 18 20 22 24 24 24 23 25 29 33 34 33 34 36 39 44 47 49 50 50 51 50 50 51 51 52
Wind_Direction
240 240 239 238 236 236 235 236 237 238 238 237 237 237 239 241 242 241 240 240 239 237 234 232 229 229 230 230 230 230 231 231 231 232 232 234 235 236 238 241 244 247 251 255 259 264 269 271 272 272 273 276 279 283 287 290 293 296 299 300 300 302 302 301 298 298 299 301 302 302 301 301 302 304 306 307 309 310 310 311 312 313 313 313 313
245 243 242 240 239 239 238 237 237 238 239 238 238 237 238 240 241 241 241 240 239 237 234 231 229 229 229 230 230 231 231 232 232 232 232 234 235 236 238 240 242 246 250 254 258 263 266 268 269 269 271 275 278 282 285 288 291 294 296 297 298 300 299 299 297 297 299 300 302 302 301 301 302 305 307 307 310 312 312 314 315 314 313 313 313
250 246 244 243 242 242 240 239 239 239 239 239 239 238 239 240 240 241 241 241 239 238 235 232 230 229 229 229 230 231 231 231 231 232 232 234 235 236 238 240 242 245 249 253 257 261 264 266 267 267 270 273 277 281 284 287 290 292 294 295 297 297 297 297 296 296 297 299 300 302 303 303 302 305 307 307 311 315 315 316 316 314 313 313 313
256 249 246 245 245 243 242 241 241 241 241 241 240 240 240 240 240 241 241 241 239 238 236 234 232 230 229 229 230 230 230 230 230 231 232 233 234 235 237 239 242 245 248 251 255 259 263 265 266 266 269 272 276 279 281 285 288 290 292 294 295 295 295 295 294 294 295 296 299 302 302 302 303 306 310 311 314 316 316 316 316 314 313 313 313
260 254 250 247 245 245 244 243 242 242 243 243 242 242 241 240 241 241 240 240 239 237 235 233 232 231 230 230 230 229 229 229 230 231 232 233 233 235 236 238 241 243 246 249 253 258 261 263 264 266 268 271 274 277 280 284 287 290 292 293 294 294 294 294 293 292 290 292 297 300 301 303 306 309 312 315 316 316 316 316 315 314 313 312 311
264 258 254 250 247 246 246 245 245 245 246 246 244 243 242 241 241 241 241 241 239 237 235 234 233 232 231 231 231 230 229 229 230 231 232 233 233 234 235 237 239 242 245 248 252 256 259 261 263 265 268 272 274 276 280 285 288 291 292 293 294 294 293 293 291 289 290 292 297 301 304 307 309 310 313 316 315 314 316 318 315 313 312 311 310
267 261 256 253 251 249 247 247 249 249 248 248 246 244 243 243 242 241 241 241 240 238 236 234 233 233 232 232 231 230 229 230 230 231 231 232 233 234 234 235 238 241 244 247 251 255 258 259 261 264 267 271 274 277 283 287 289 290 291 292 293 292 291 291 292 293 296 299 301 303 306 309 309 309 312 314 313 311 313 314 313 312 311 309 307
269 264 257 255 254 252 251 250 251 250 249 248 246 244 243 242 242 241 241 240 240 239 238 236 233 232 232 232 231 230 229 229 230 230 230 231 231 232 234 235 237 240 242 245 249 253 255 257 260 263 266 271 276 280 283 285 287 288 290 291 291 291 293 295 299 301 302 301 302 303 305 306 306 308 310 311 309 309 310 309 308 310 311 308 304
268 265 258 255 256 256 254 251 250 249 247 246 245 245 243 242 241 241 240 240 240 239 238 237 234 232 231 230 230 229 229 229 230 230 230 231 231 232 233 235 237 239 241 244 247 249 253 256 258 262 268 274 277 279 281 283 286 289 290 292 294 296 299 301 300 300 298 297 296 298 299 300 301 305 308 308 306 307 310 309 304 305 306 304 302
267 265 261 260 259 257 254 250 248 247 246 246 245 245 244 242 240 240 239 240 239 238 236 235 234 233 231 230 230 229 229 229 229 230 230 231 232 232 233 234 236 238 240 242 244 248 251 254 258 265 271 273 274 276 280 284 288 290 291 293 294 295 296 294 290 289 289 289 289 291 292 293 296 300 302 303 304 304 306 306 302 301 301 299 300
265 263 264 263 259 255 251 248 246 247 247 246 245 244 243 242 240 239 238 238 238 237 235 234 233 232 231 231 231 230 229 229 229 229 229 229 231 232 233 235 236 237 239 241 243 247 250 255 262 267 270 271 273 276 280 284 286 286 286 286 285 282 281 281 280 280 282 284 286 287 288 290 294 297 297 298 300 301 301 300 298 298 298 296 297
266 263 265 263 257 252 249 247 246 246 246 246 245 243 242 241 239 237 237 237 237 236 234 233 232 232 230 230 231 231 230 229 229 228 228 228 229 230 232 234 236 237 239 240 243 246 251 258 264 267 268 270 273 274 277 281 281 280 280 281 280 276 273 273 275 277 279 282 284 285 285 287 290 293 294 295 298 300 300 299 297 295 295 293 292
271 269 268 263 257 253 249 246 246 246 245 245 244 242 241 239 238 237 236 236 236 235 233 232 231 231 230 230 230 230 230 229 228 227 227 228 229 230 231 233 235 237 237 239 243 247 253 260 264 266 268 269 271 274 278 281 280 279 280 281 281 280 281 280 278 275 274 277 279 280 282 285 287 291 296 297 299 299 297 297 297 294 293 292 290
274 272 268 262 258 254 250 248 248 247 245 244 242 240 240 239 237 236 235 235 234 234 233 231 230 230 230 230 231 230 229 228 227 227 226 227 229 230 231 233 234 234 235 238 243 248 255 261 263 265 268 269 272 275 278 278 277 278 281 284 287 290 292 290 285 278 275 276 278 282 287 290 290 292 297 297 295 295 294 295 297 296 294 293 292
276 273 268 263 259 256 253 251 249 247 245 243 241 240 239 238 236 235 234 234 235 234 233 231 230 230 230 230 231 230 228 226 226 226 226 227 229 230 231 232 232 232 235 239 244 250 256 261 264 266 268 271 274 276 277 277 277 283 287 290 292 292 290 290 290 288 286 285 285 287 290 290 288 288 291 293 292 292 292 291 291 291 291 290 289
278 275 270 266 263 259 256 252 249 247 244 242 241 239 238 236 235 234 233 233 233 233 232 231 231 230 230 230 230 229 227 225 224 225 225 227 229 230 229 230 231 232 236 241 246 253 259 262 264 267 269 273 276 275 276 279 282 287 289 288 290 291 293 297 297 291 286 283 282 282 283 286 287 287 288 290 290 290 289 286 285 285 286 287 288
287 281 276 272 267 263 258 253 250 247 245 243 242 240 239 236 234 234 233 232 232 231 231 231 231 231 231 231 230 228 225 223 223 224 224 225 228 230 229 228 230 233 238 243 249 254 260 263 266 269 272 275 275 274 277 282 284 284 286 290 294 296 299 301 297 291 287 284 284 286 289 290 290 288 290 292 292 292 290 287 289 291 291 290 290
301 293 286 278 270 263 258 254 251 248 247 246 244 241 238 236 235 235 234 234 234 233 233 232 231 231 231 231 231 229 225 223 223 223 223 224 228 230 230 229 231 235 239 243 249 254 259 264 266 270 274 274 273 277 282 283 282 284 291 297 296 295 298 299 296 294 294 294 295 296 297 297 295 295 297 298 297 296 293 290 293 294 292 290 289
311 303 294 284 273 265 259 255 252 250 248 246 243 240 238 236 236 236 235 235 235 235 234 232 231 231 231 231 231 228 225 223 222 222 222 223 226 227 228 230 233 236 240 243 248 254 258 262 265 269 272 271 273 280 283 281 284 290 295 293 290 293 299 300 299 299 299 298 299 300 300 300 301 301 301 301 299 300 299 296 294 291 287 286 286
317 311 303 293 281 272 264 258 253 250 248 245 242 240 239 238 237 236 235 234 234 234 233 232 232 232 231 230 229 226 223 221 221 221 220 221 224 226 227 231 233 236 240 243 247 253 258 261 264 265 266 268 273 278 278 280 286 289 288 287 290 297 304 303 299 298 297 296 298 301 302 303 303 302 302 304 305 307 306 301 292 284 281 282 284
317 312 306 301 293 282 273 265 258 253 249 247 244 242 241 239 239 237 235 234 233 232 232 231 231 231 230 229 227 223 221 220 220 220 219 220 224 226 227 230 233 236 240 242 246 252 257 259 260 259 260 265 269 270 274 281 284 283 286 290 296 301 302 297 294 294 297 299 301 303 304 304 304 305 307 309 311 312 311 302 288 280 277 279 282
321 315 308 305 300 292 283 273 264 257 252 249 246 244 241 240 239 237 235 234 232 231 231 230 230 230 229 227 225 221 219 218 219 219 219 220 224 227 227 229 233 235 237 241 246 251 254 255 254 254 257 262 264 267 274 282 282 284 291 296 297 297 293 290 293 297 301 302 302 304 306 308 309 311 313 314 315 316 312 301 286 282 280 278 280
323 320 314 308 303 297 291 283 274 264 256 252 247 244 241 240 238 235 233 232 230 230 230 229 228 228 227 225 223 220 218 217 216 216 217 219 223 227 227 226 230 233 234 239 246 250 250 250 249 252 256 258 262 268 275 281 284 290 297 296 293 292 291 293 298 301 302 303 305 308 311 313 314 315 316 318 318 317 313 306 299 295 292 288 286
311 313 313 311 306 300 294 289 282 271 261 253 246 243 242 240 238 235 233 231 230 229 229 228 227 226 225 223 220 217 215 214 214 214 216 218 221 225 226 225 227 231 233 238 245 247 246 244 246 250 254 256 262 271 276 283 291 296 297 294 292 293 294 298 301 303 305 309 311 314 316 317 317 317 319 320 319 318 316 313 309 305 302 299 296
299 300 303 304 304 300 295 290 282 272 262 253 247 245 244 241 239 236 233 232 231 230 230 229 227 225 223 221 218 215 213 212 211 211 213 215 217 221 225 225 225 230 234 239 243 244 240 239 242 246 251 256 265 274 279 288 295 295 294 292 292 295 297 300 304 307 311 315 317 318 320 320 319 319 320 322 321 321 321 319 316 312 310 307 305
298 295 293 294 295 294 292 288 281 271 261 253 249 247 246 245 242 239 236 234 231 230 231 230 228 225 222 220 217 215 213 211 211 211 212 213 214 216 220 222 222 228 235 238 238 236 234 236 241 245 249 256 265 274 284 292 292 292 292 292 292 297 301 305 310 314 316 319 319 320 321 320 320 320 323 324 324 324 324 322 318 316 313 311 309
298 297 294 291 288 286 285 283 278 270 261 253 249 246 244 243 241 239 238 233 229 228 230 229 226 223 221 219 217 215 214 212 212 212 212 213 213 213 215 218 220 225 233 235 232 230 231 234 239 242 245 253 264 278 289 294 294 293 293 292 296 302 307 311 315 318 319 320 320 320 321 322 322 323 326 326 325 325 325 321 316 315 314 313 310
296 297 295 291 286 282 279 277 273 267 260 254 249 246 244 242 240 240 239 235 231 230 229 228 226 225 221 217 214 213 212 213 213 213 213 214 214 213 214 217 222 226 230 229 225 224 226 229 233 235 239 251 268 283 288 291 294 294 294 296 302 308 312 315 318 319 320 321 321 322 323 323 324 327 329 327 324 324 323 320 315 314 314 313 309
294 295 292 289 284 279 274 272 269 264 259 253 250 247 246 244 242 241 241 240 239 239 237 234 231 226 220 217 214 211 211 213 214 216 217 216 215 215 216 220 224 225 224 222 220 220 220 223 227 231 238 252 266 274 280 284 288 291 296 304 310 313 316 318 321 323 323 323 323 324 324 326 328 330 328 324 322 322 321 319 316 314 313 311 308
291 291 290 286 282 277 273 270 266 262 258 253 249 246 244 244 243 242 242 242 241 242 243 243 240 230 222 219 217 216 215 216 215 215 215 213 212 214 217 220 220 217 216 215 213 214 217 219 221 225 235 250 258 265 273 279 286 293 300 308 314 316 319 322 324 325 325 325 324 326 328 330 330 329 325 322 321 321 320 318 316 314 313 310 308
287 286 286 284 281 277 273 269 264 260 257 254 249 246 244 243 242 242 242 242 241 239 238 239 238 232 224 219 217 216 217 218 217 215 212 210 209 210 212 212 210 210 212 212 208 210 214 214 213 217 228 243 255 266 275 283 294 302 308 314 318 320 323 327 328 326 325 325 325 328 331 332 329 325 323 321 320 320 319 317 316 314 312 310 307
282 280 280 281 280 276 271 266 262 259 256 253 249 247 245 243 241 240 239 239 239 237 234 231 230 226 221 218 216 213 213 214 215 213 209 207 207 208 208 207 205 204 207 207 206 207 208 206 208 217 228 242 258 271 282 292 303 311 315 319 322 325 328 330 328 326 326 326 327 331 334 333 328 323 322 321 320 318 317 317 316 315 313 311 308
276 275 276 278 278 274 269 265 261 259 257 255 252 249 246 244 241 238 235 233 232 231 229 228 225 220 217 216 215 215 214 213 211 208 206 205 207 208 207 204 202 201 201 200 200 201 200 199 207 219 229 244 261 274 287 299 308 315 320 321 324 328 331 330 329 327 327 327 330 334 336 333 329 326 324 322 320 317 316 317 317 316 314 312 310
272 271 272 274 275 273 270 266 263 260 258 256 253 250 247 245 241 235 229 223 219 216 218 220 220 217 214 213 213 214 214 211 206 202 201 203 206 206 202 199 199 199 196 194 194 196 195 198 208 221 232 246 263 277 291 303 311 317 321 323 325 329 331 330 330 328 327 329 333 337 337 335 331 327 324 322 320 318 317 317 317 316 315 312 311
271 269 268 268 270 269 268 266 263 260 257 254 251 248 245 241 236 231 225 219 212 207 206 208 211 213 213 212 210 209 207 203 199 197 199 203 205 203 200 199 198 195 192 191 191 191 192 200 211 223 235 249 267 283 296 308 315 319 322 324 326 329 330 331 330 328 328 332 335 337 338 336 332 328 323 321 320 319 318 318 318 317 315 313 312
271 269 268 266 266 265 265 264 261 259 256 253 250 246 240 235 231 225 220 215 209 202 198 197 199 206 211 210 205 201 198 194 194 196 200 203 203 204 205 202 197 192 190 189 188 186 190 201 213 223 236 252 271 289 302 312 317 320 323 325 327 329 331 331 330 330 331 334 335 338 340 338 332 328 325 322 320 320 320 320 319 317 316 314 313
270 267 265 265 265 264 263 262 259 257 254 250 245 240 234 229 225 218 211 206 201 196 193 190 188 190 195 195 192 189 186 187 191 195 197 198 202 206 207 201 194 191 191 188 185 186 191 202 212 223 239 257 276 294 307 315 318 322 324 325 327 330 331 331 331 331 332 333 335 339 342 338 333 330 327 324 322 321 321 321 320 318 317 316 314
270 265 262 263 265 265 262 260 257 253 249 245 240 235 228 222 217 211 205 200 196 192 189 187 185 183 182 180 179 178 177 179 183 186 189 196 201 202 197 192 191 192 190 187 186 187 195 204 214 224 242 263 283 300 311 316 320 323 324 325 328 331 331 330 330 331 332 334 337 341 342 338 333 331 328 325 323 323 323 322 321 319 318 317 316
271 267 264 264 265 263 260 257 253 249 244 239 234 228 222 216 210 204 200 196 193 191 188 185 184 183 180 176 175 175 177 179 183 188 193 198 199 196 191 190 190 189 187 187 188 191 199 208 216 228 248 270 291 306 314 319 323 324 324 325 328 332 333 332 331 332 334 336 339 343 342 337 332 331 330 327 325 325 324 323 322 320 319 318 317
271 268 265 263 263 261 257 253 249 245 240 235 230 223 216 212 206 201 197 193 191 189 187 185 184 182 180 178 179 180 182 185 190 195 197 195 193 190 189 188 188 187 186 187 190 195 205 213 220 234 255 280 299 309 315 321 323 324 324 326 329 332 334 334 333 333 335 337 341 344 341 335 333 332 331 328 327 327 325 324 323 322 320 318 317
274 270 266 263 261 258 253 248 245 241 236 232 225 218 213 209 203 198 195 192 190 187 185 184 183 181 181 183 185 187 190 192 193 194 193 191 189 188 186 185 185 185 186 189 193 201 209 216 223 238 261 287 302 310 316 321 322 323 325 327 330 333 335 334 334 334 335 338 343 345 340 335 335 334 330 329 329 328 327 325 324 323 322 321 319
274 270 267 264 259 252 248 244 241 236 231 226 220 215 210 204 198 195 192 189 187 184 182 181 181 181 182 185 188 190 194 194 192 189 188 187 186 184 183 182 183 184 186 192 198 205 212 216 223 242 266 289 303 312 316 318 320 324 327 329 332 335 335 334 333 334 336 340 344 344 340 337 336 333 330 330 330 329 328 327 326 325 324 323 322
269 268 265 262 256 249 246 242 236 230 225 220 214 210 205 199 195 193 190 186 184 183 181 182 183 182 181 184 189 192 193 191 187 185 184 183 182 181 181 181 181 184 189 194 199 206 212 217 225 243 268 290 304 312 314 317 322 325 327 330 334 336 335 334 332 333 336 342 345 343 341 339 336 332 330 331 331 330 330 329 327 327 326 324 323
265 265 261 255 249 244 239 234 229 224 219 213 207 203 200 196 193 191 189 186 184 184 184 186 186 182 179 183 189 191 188 184 183 183 181 180 180 179 179 179 182 186 191 196 201 206 212 217 227 246 278 297 305 310 314 319 324 326 327 331 334 335 335 333 330 331 338 344 345 343 342 339 335 331 331 333 333 331 331 330 329 328 327 326 325
259 260 254 247 241 236 231 226 222 217 212 206 201 198 196 193 191 189 187 185 185 185 187 189 187 182 181 185 188 187 183 181 181 180 179 178 178 177 177 179 183 188 193 197 202 206 209 216 231 255 283 297 303 310 315 319 323 326 327 330 333 335 334 330 327 331 340 345 345 344 341 336 331 331 332 334 333 332 331 331 330 329 328 328 326
251 251 247 240 234 229 223 219 214 210 205 201 197 193 191 189 188 187 186 186 187 188 189 189 185 183 184 186 185 182 181 181 179 178 177 176 176 176 178 182 185 190 195 198 201 206 212 223 241 263 285 297 302 309 314 317 321 324 326 328 331 333 331 326 325 333 343 347 346 343 337 330 329 332 334 334 334 334 333 332 331 331 330 329 328
243 241 236 230 224 218 214 209 205 201 198 195 192 188 186 186 186 186 186 187 188 190 190 188 185 185 187 185 181 179 180 179 177 176 175 175 175 177 181 184 188 192 195 197 202 210 220 236 257 276 292 301 305 309 312 315 319 323 325 328 330 330 327 325 326 335 346 350 347 340 331 327 330 334 335 336 336 336 334 333 333 333 333 332 331
231 226 221 216 211 207 203 199 195 193 190 188 186 185 184 184 185 185 186 188 189 190 188 185 184 185 185 182 178 178 177 176 175 174 174 175 177 180 183 186 189 192 195 199 206 218 232 252 273 289 300 306 308 311 311 314 319 324 326 327 329 329 327 324 324 334 347 352 345 334 326 328 333 336 336 337 338 337 335 335 335 335 335 335 334
213 209 205 202 199 196 193 190 188 187 185 183 183 183 183 184 185 187 188 189 189 188 186 184 183 184 182 178 176 176 176 175 174 174 175 177 180 182 185 188 190 191 196 204 214 226 243 263 283 297 304 308 310 311 313 316 321 324 326 328 330 330 327 322 324 337 351 351 338 327 326 332 337 338 337 339 340 338 337 338 337 338 338 337 337
195 193 192 189 187 186 185 184 183 183 182 182 182 182 183 185 186 188 189 189 187 184 184 184 183 180 178 176 176 176 175 174 174 175 177 180 182 183 185 188 190 193 201 210 219 233 253 273 289 299 305 309 312 313 314 318 321 323 325 328 330 330 328 325 329 344 355 347 331 325 330 338 340 339 339 341 342 341 340 341 341 341 341 340 339
181 181 180 179 179 179 179 180 180 180 181 182 182 183 184 186 186 186 185 184 182 181 181 180 178 175 174 175 176 175 174 174 176 178 180 181 182 184 186 189 193 199 208 216 225 239 258 275 289 298 304 309 312 313 315 317 320 321 324 327 330 332 330 327 332 347 353 340 328 328 337 342 341 340 341 344 344 344 343 343 344 344 344 343 342